EA5ZF Weather Reports


Display with metric or nautical units.
time (UTC)temp
F
wind
direction
speed
MPH
gust
MPH
rain 1hr
in
rain 24hr
in
rain mn
in
humidity
%
barometer
mb
20260507113523 66 68 4.0 10.0 0.00 0.00 0.00 70 1013.9
20260507112522 67 68 4.0 9.0 0.00 0.00 0.00 68 1013.8
20260507111524 67 68 5.0 11.0 0.00 0.00 0.00 66 1014.0
20260507110521 68 68 3.0 13.0 0.00 0.00 0.00 62 1014.0
20260507105521 68 113 3.0 11.0 0.00 0.00 0.00 59 1013.9
20260507104521 67 45 4.0 12.0 0.00 0.00 0.00 60 1013.9
20260507103521 67 68 5.0 13.0 0.00 0.00 0.00 57 1013.9
20260507102524 68 68 5.0 13.0 0.00 0.00 0.00 57 1014.0
20260507101541 68 45 4.0 14.0 0.00 0.00 0.00 59 1014.0
20260507100521 66 45 5.0 12.0 0.00 0.00 0.00 60 1014.0
20260507095521 67 68 3.0 8.0 0.00 0.00 0.00 60 1014.1
20260507094523 66 68 5.0 11.0 0.00 0.00 0.00 65 1014.2
20260507093523 65 68 1.0 7.0 0.00 0.00 0.00 67 1014.2
20260507092521 65 315 5.0 10.0 0.00 0.00 0.00 68 1014.2
20260507091521 65 45 2.0 6.0 0.00 0.00 0.00 69 1014.1
20260507090528 65 45 4.0 9.0 0.00 0.00 0.00 69 1014.3
20260507085521 65 68 3.0 7.0 0.00 0.00 0.00 68 1014.3
20260507084521 64 45 2.0 7.0 0.00 0.00 0.00 70 1014.2
20260507083521 63 338 4.0 8.0 0.00 0.00 0.00 71 1014.2
20260507082525 63 45 4.0 11.0 0.00 0.00 0.00 72 1014.3
20260507081525 63 68 2.0 7.0 0.00 0.00 0.00 72 1014.2
20260507080523 63 68 5.0 11.0 0.00 0.00 0.00 72 1014.2
20260507075543 63 68 5.0 12.0 0.00 0.00 0.00 72 1014.1
20260507074525 63 45 3.0 10.0 0.00 0.00 0.00 72 1014.2
20260507073523 63 315 3.0 7.0 0.00 0.00 0.00 71 1014.1
20260507072543 63 23 3.0 10.0 0.00 0.00 0.00 72 1013.9
20260507071525 63 68 5.0 10.0 0.00 0.00 0.00 71 1013.9
20260507070523 63 45 3.0 8.0 0.00 0.00 0.00 72 1013.8
20260507065523 62 45 3.0 8.0 0.00 0.00 0.00 73 1013.8
20260507064523 62 45 5.0 9.0 0.00 0.00 0.00 74 1013.7
20260507063525 62 45 4.0 9.0 0.00 0.00 0.00 75 1013.7
20260507062542 61 68 2.0 6.0 0.00 0.00 0.00 75 1013.7
20260507061543 61 45 2.0 5.0 0.00 0.00 0.00 74 1013.7
20260507060523 61 45 2.0 6.0 0.00 0.00 0.00 73 1013.6
20260507055525 61 45 1.0 6.0 0.00 0.00 0.00 70 1013.6
20260507054522 59 0.0 2.0 0.00 0.00 0.00 69 1013.3
20260507053523 56 0.0 0.0 0.00 0.00 0.00 68 1013.2
20260507052523 55 0.0 0.0 0.00 0.00 0.00 69 1013.1
20260507051543 54 0.0 0.0 0.00 0.00 0.00 71 1012.9
20260507050523 53 0.0 1.0 0.00 0.00 0.00 71 1012.9
20260507045522 54 0.0 1.0 0.00 0.00 0.00 71 1012.8
20260507044522 53 0.0 0.0 0.00 0.00 0.00 70 1012.6
20260507043523 54 0.0 0.0 0.00 0.00 0.00 68 1012.6
20260507042527 55 0.0 1.0 0.00 0.00 0.00 68 1012.6
20260507041523 55 0.0 0.0 0.00 0.00 0.00 68 1012.6
20260507040522 55 0.0 1.0 0.00 0.00 0.00 68 1012.6
20260507035544 55 0.0 0.0 0.00 0.00 0.00 67 1012.6
20260507034522 54 0.0 0.0 0.00 0.00 0.00 68 1012.6
20260507033522 55 0.0 0.0 0.00 0.00 0.00 67 1012.6
20260507032522 55 0.0 1.0 0.00 0.00 0.00 68 1012.7
20260507031542 54 0.0 0.0 0.00 0.00 0.00 68 1012.7
20260507030523 55 0.0 0.0 0.00 0.00 0.00 68 1012.8
20260507025525 55 0.0 0.0 0.00 0.00 0.00 67 1012.7
20260507024524 55 0.0 0.0 0.00 0.00 0.00 67 1012.9
20260507023524 55 0.0 0.0 0.00 0.00 0.00 67 1012.9
20260507022523 55 0.0 0.0 0.00 0.00 0.00 68 1012.8
20260507021525 55 0.0 0.0 0.00 0.00 0.00 67 1012.8
20260507020522 55 0.0 0.0 0.00 0.00 0.00 66 1012.7
20260507015523 55 0.0 0.0 0.00 0.00 0.00 67 1012.9
20260507014524 55 0.0 0.0 0.00 0.00 0.00 67 1012.8
20260507013543 56 0.0 0.0 0.00 0.00 0.00 66 1012.8
20260507012524 56 0.0 0.0 0.00 0.00 0.00 66 1012.9
20260507011527 56 0.0 1.0 0.00 0.00 0.00 66 1012.9
20260507010522 56 0.0 1.0 0.00 0.00 0.00 64 1012.9
20260507005523 56 0.0 0.0 0.00 0.00 0.00 66 1013.1
20260507004522 57 0.0 0.0 0.00 0.00 0.00 65 1013.2
20260507003522 57 0.0 1.0 0.00 0.00 0.00 62 1013.3
20260507002522 58 0.0 0.0 0.00 0.00 0.00 64 1013.4
20260507001542 58 0.0 1.0 0.00 0.00 0.00 63 1013.5
20260507000543 58 0.0 1.0 0.00 0.00 0.00 62 1013.5
20260506235523 58 0.0 1.0 0.00 0.00 0.00 62 1013.5
20260506234522 58 0.0 1.0 0.00 0.00 0.00 62 1013.6
20260506233522 58 0.0 1.0 0.00 0.00 0.00 63 1013.7
20260506232522 58 0.0 0.0 0.00 0.00 0.00 66 1013.7
20260506231522 58 0.0 1.0 0.00 0.00 0.00 67 1013.9
20260506230541 58 0.0 1.0 0.00 0.00 0.00 66 1013.9
20260506225521 58 0.0 1.0 0.00 0.00 0.00 63 1014.0
20260506224522 58 0.0 1.0 0.00 0.00 0.00 67 1013.9
20260506223542 58 0.0 1.0 0.00 0.00 0.00 67 1013.9
20260506222523 58 0.0 1.0 0.00 0.00 0.00 62 1014.0
20260506221522 59 0.0 1.0 0.00 0.00 0.00 66 1014.0
20260506220521 59 0.0 0.0 0.00 0.00 0.00 63 1013.9
20260506215545 59 0.0 1.0 0.00 0.00 0.00 65 1013.8
20260506214522 59 0.0 0.0 0.00 0.00 0.00 65 1013.9
20260506213522 59 0.0 0.0 0.00 0.00 0.00 67 1013.9
20260506212522 60 0.0 1.0 0.00 0.00 0.00 69 1013.8
20260506211542 60 0.0 1.0 0.00 0.00 0.00 72 1013.8
20260506210522 60 0.0 1.0 0.00 0.00 0.00 73 1013.7
20260506205522 60 0.0 0.0 0.00 0.00 0.00 74 1013.7
20260506204546 60 338 1.0 3.0 0.00 0.00 0.00 73 1013.6
20260506203522 61 0.0 1.0 0.00 0.00 0.00 73 1013.5
20260506202522 61 338 1.0 2.0 0.00 0.00 0.00 72 1013.5
20260506201522 61 0.0 1.0 0.00 0.00 0.00 71 1013.4
20260506200522 61 0.0 1.0 0.00 0.00 0.00 71 1013.3
20260506195522 62 0.0 0.0 0.00 0.00 0.00 70 1013.1
20260506194523 62 0.0 1.0 0.00 0.00 0.00 69 1013.0
20260506193522 62 0.0 1.0 0.00 0.00 0.00 68 1012.9
20260506192520 63 0.0 2.0 0.00 0.00 0.00 69 1012.9
20260506191523 63 0.0 2.0 0.00 0.00 0.00 68 1012.8
20260506190522 63 135 2.0 4.0 0.00 0.00 0.00 68 1012.7
20260506185522 64 135 2.0 5.0 0.00 0.00 0.00 64 1012.6
20260506184522 64 135 1.0 3.0 0.00 0.00 0.00 63 1012.5
20260506183522 65 113 2.0 4.0 0.00 0.00 0.00 60 1012.4
20260506182522 65 113 2.0 5.0 0.00 0.00 0.00 59 1012.1
20260506181522 66 113 1.0 3.0 0.00 0.00 0.00 54 1012.1
20260506180522 66 0.0 2.0 0.00 0.00 0.00 55 1012.0
20260506175542 66 0.0 0.0 0.00 0.00 0.00 57 1012.0
20260506174521 66 0.0 2.0 0.00 0.00 0.00 58 1012.0
20260506173521 66 225 1.0 4.0 0.00 0.00 0.00 57 1012.0
20260506172521 65 113 1.0 4.0 0.00 0.00 0.00 59 1012.0
20260506171522 65 113 2.0 6.0 0.00 0.00 0.00 61 1012.0
20260506170522 65 135 3.0 7.0 0.00 0.00 0.00 62 1012.0
20260506165521 65 135 3.0 6.0 0.00 0.00 0.00 60 1012.0
20260506164541 65 113 2.0 7.0 0.00 0.00 0.00 63 1011.9
20260506163521 66 113 1.0 4.0 0.00 0.00 0.00 62 1012.0
20260506162522 66 135 5.0 12.0 0.00 0.00 0.00 62 1012.2
20260506161521 66 113 4.0 11.0 0.00 0.00 0.00 62 1012.2
20260506160521 65 135 3.0 8.0 0.00 0.00 0.00 63 1012.3
20260506155602 65 113 3.0 11.0 0.00 0.00 0.00 64 1012.4
20260506154541 66 68 3.0 7.0 0.00 0.00 0.00 64 1012.4
20260506153521 67 113 3.0 8.0 0.00 0.00 0.00 62 1012.4
20260506152522 66 113 4.0 10.0 0.00 0.00 0.00 63 1012.2
20260506151521 67 135 4.0 9.0 0.00 0.00 0.00 61 1012.3
20260506150521 67 45 2.0 6.0 0.00 0.00 0.00 60 1012.3
20260506145541 68 113 1.0 7.0 0.00 0.00 0.00 61 1012.3
20260506144521 67 315 1.0 5.0 0.00 0.00 0.00 62 1012.4
20260506143525 67 135 2.0 9.0 0.00 0.00 0.00 61 1012.3
20260506142525 68 0.0 3.0 0.00 0.00 0.00 61 1012.5
20260506141521 67 135 2.0 7.0 0.00 0.00 0.00 61 1012.6
20260506140601 67 45 4.0 9.0 0.00 0.00 0.00 62 1012.8
20260506135521 67 113 4.0 7.0 0.00 0.00 0.00 63 1012.7
20260506134541 67 113 4.0 9.0 0.00 0.00 0.00 64 1012.8
20260506133541 67 113 3.0 9.0 0.00 0.00 0.00 64 1012.9
20260506132521 67 135 3.0 11.0 0.00 0.00 0.00 65 1012.8
20260506131521 68 113 2.0 6.0 0.00 0.00 0.00 62 1012.8
20260506130521 67 135 2.0 7.0 0.00 0.00 0.00 60 1012.7
20260506125521 66 68 2.0 7.0 0.00 0.00 0.00 62 1012.9
20260506124541 67 135 5.0 12.0 0.00 0.00 0.00 61 1012.9
20260506123641 67 45 4.0 12.0 0.00 0.00 0.00 62 1013.0
20260506122521 68 113 3.0 11.0 0.00 0.00 0.00 60 1012.9
20260506121521 68 113 4.0 9.0 0.00 0.00 0.00 59 1013.1
20260506120521 68 158 2.0 7.0 0.00 0.00 0.00 57 1013.0
20260506115521 68 135 5.0 9.0 0.00 0.00 0.00 56 1013.1
20260506114521 67 113 5.0 11.0 0.00 0.00 0.00 60 1013.1